Погода в Называевске

Погода в Называевске : погода сейчас, прогноз погоды и архив. Всё, что Вы хотите узнать о погоде в Называевске!

Хотите узнать прогноз погоды в Называевске? Тогда Вам сюда: Погода в Называевске

Поиск расширенной информации на нашем сайте:

Другие новости

Новости СМИ2

Главная страница сайта

Новости сайта

03.07.2017

Напоминаем, что на нашем специализированном сайте Метеоцентр.Азия вы можете получить высокодетализированные автоматические прогнозы погоды по пунктам России, СНГ и мира в авиационном формате (включающие направление и скорость ветра, видимость, явления погоды, количество и форму облачности, нижнюю и верхнюю границу облачности).


Погода в Называевске - сегодня

Время (UTC), дата Ветер
(°,м/с) 
Видим.   Явления Облачность Т
(°С)
Тd
(°С)
f(%) Тe
(°С)
Pmin
(гПа)
dP
(гПа)
Po
(мм)
O2
(г/м3)
Тmin Tmax R s Состояние
почвы
21 10.08.18 300 (СЗ) 20000 м    10/10 600 м кучево-дожд. 
[Cb cap]
+13.2 +11.7 91 +17  1000.8  -0.5  740  282           
03 11.08.18 260 (З) 40000 м    8/0 верхняя 
[Cu hum|Ci sp]
+14.5 +10.8 78 +17  998.8  -1.4  738  280  +11.7    0.8     
15 11.08.18 320 (СЗ) 6-12{13}  30000 м  в посл. час дождь{морось}  10/10 300 м 
[Frnb|Ns]
+11.1 +9 87 +10  996.8  2.1  737  284    +17.5     
21 11.08.18 320 (СЗ) 5{13}  20000 м    10/10 300 м 
[Frnb|Ns]
+10.4 +6.9 79 +9  999  0.4  738  285           
03 12.08.18 330 (СЗ) 9-13{14}  40000 м    9/4 600 м средняя 
[Cu hum|Ac As]
+10.4 +5.8 73 +8  1002.1  740  286  +9.8    0.0     
15 12.08.18 290 (З) 1{10}  40000 м    1/0 верхняя 
[Ci sp]
+12.6 +6.2 65 +14  1009.9  2.2  746  286    +16.3       
21 12.08.18 240 (ЮЗ) 20000 м    3/0 верхняя 
[Ci sp]
+8.1 +5.3 82 +8  1011.7  0.5  747  292           
03 13.08.18 250 (З) 40000 м    3/0 средняя 
[Ac cuf]
+14.1 +8.5 69 +14  1013.5  1.2  749  285  +7.7    0.3     
09 13.08.18 280 (З) 40000 м    6/6 600 м кучево-дожд. 
[Cb cap]
+22.1 +10.4 47 +24  1013.4  0.2  749  277           
15 13.08.18 170 (Ю) 40000 м    9/4 600 м кучево-дожд., средняя 
[Cb cap|Ac lent]
+19 +12.6 66 +25  1013.8  0.2  749  280    +22.5       
21 13.08.18 210 (ЮЗ) 20000 м    ясно 
+15.7 +12.1 79 +20  1014.6  0.4  750  283           
03 14.08.18 200 (Ю) 40000 м    1/0 верхняя 
[Ci fib]
+20 +11.1 57 +23  1015.2  0.4  750  280  +14.9         
09 14.08.18 180 (Ю) 40000 м    ясно 
+27.5 +12.1 38 +32  1014  -0.6  750  272           
15 14.08.18 140 (ЮВ) 40000 м    3/0 средняя, верхняя 
[Ac cuf|Ci fib]
+22.9 +13 54 +28  1012.5  -0.7  749  276    +27.9       
21 14.08.18 160 (Ю) 20000 м    1/0 средняя 
[Ac cuf]
+16.6 +10.1 65 +19  1012.8  -0.1  749  283           
03 15.08.18 250 (З) 82  70000 м  осадки на расстоянии{туман}  8/1 600 м верхняя 
[Cu med, cong|Ci sp]
+19 +10.4 57 +18  1010.8  -1.1  747  280  +13.2         
09 15.08.18 150 (ЮВ) 40000 м    6/0 верхняя 
[Ci sp]
+27.4 +11.8 38 +31  1008.4  -0.9  746  271           
15 15.08.18 120 (ЮВ) 40000 м    9/4 600 м кучево-дожд., средняя 
[Cb cap|Ac As]
+22.7 +11.8 50 +26  1006.7  -1.1  744  275    +28.1       
21 15.08.18 260 (З) 20000 м  в посл. час ливневой дождь  9/4 600 м кучево-дожд., средняя 
[Cb cap|Ac As]
+18.3 +14.4 78 +28  1006.1  744  278           
03 16.08.18 270 (З) 0500 м  туман  ?/?  
+15.2 +14 93 +23  1008.2  0.9  745  282  +14.8    0.3     
09 16.08.18 280 (З) 40000 м    8/4 600 м верхняя 
[Cu med, cong|Ci sp]
+23.7 +12 48 +28  1008.9  0.6  746  274           
15 16.08.18 240 (ЮЗ) 40000 м    1/0 средняя 
[Ac cuf]
+18.4 +12.4 68 +25  1010  0.5  747  279    +24.5       
21 16.08.18 250 (З) 20000 м    5/0 верхняя 
[Ci sp]
+13.9 +12.6 92 +20  1010.9  0.3  747  284           
03 17.08.18 300 (СЗ) 40000 м    10/10 600 м 
[St]
+16 +13.2 83 +22  1011.4  0.6  748  282  +13.4         
09 17.08.18 240 (ЮЗ) 40000 м    8/6 600 м верхняя 
[Cu med, cong|Ci sp]
+23.1 +10.6 45 +25  1009.3  -1.1  746  275           
Время (UTC), дата Ветер
(°,м/с) 
Видим.   Явления Облачность Т
(°С)
Тd
(°С)
f(%) Тe
(°С)
Pmin
(гПа)
dP
(гПа)
Po
(мм)
O2
(г/м3)
Тmin Tmax R s Состояние
почвы

Для получения пояснительной информации подведите курсор к названию столбца.

ПОГОДА в Называевске - архив

Всё, что Вы хотите узнать о погоде в Называевске - удобно и подробно!

Выберите нужную дату (начиная с 1 января 2015* года) и нажмите кнопку "Найти".
Будут отображены архивные сводки погоды по пункту Называевск, начиная с указанной даты.


Отображать данные в формате CSV (для использования в таблицах Excel)


Внимание! Наш архив погоды предназначен исключительно для личного некоммерческого использования в познавательных целях. Если Вам необходимы официальные справки о состоянии погоды (для производственных, юридических, коммерческих и т.п. целей), обращайтесь в органы Росгидромета.

*Примечание: данная дата относится к архиву по метеостанциям СССР (Россия, СНГ, Балтия).
Архив по метеостанциям Зарубежной Европы и Азии (кроме Китая) хранится 10 дней, по другим регионам земного шара (Китай, Африка, Америка, Австралия, Океания) - 1 день.

Называевск - район местоположения метеостанции


Название, широта, долгота, высота метеостанции:
Называевск 55.6°ш. 71.4°д. 126 м над ур. моря [Российская Федерация]

Дополнительная информация

В oтличие oт бoльшинства пoгoдных сайтoв мы публикуем пoдрoбную метеoинфoрмацию в детальнoм прoфессиoнальнoм фoрмате.

Характеристики температуры и влажнoсти вoздуха измеряются на высoте 2 м в тени вдали oт зданий и деревьев.
Скoрoсть ветра измеряется на высoте 10 м (на урoвне рoста челoвека скoрoсть ветра ниже в 1.5-2 раза). Если метеoстанция нахoдится в гoрoде или в лесу, тo скoрoсть ветра занижена на 2-4 м/с пo сравнению с oткрытым местoм. Скoрoсть ветра над акватoриями крупных рек и oзёр, а также на вершинах хoлмoв на 2-5 м/с выше, чем в oбычных услoвиях.
Атмoсфернoе давление в разных тoчках местнoсти мoжет значительнo oтличаться oт давления на метеoстанции, в зависимoсти oт услoвий рельефа (при пoдъёме на 10 м давление пoнижается примернo на 1 мм рт.ст.).